Salt Lake City, UT

2:53 AM MDT on October 24, 2017 (GMT -0600)
Salt Lake City International

Weather History for KSLC - April, 2014

Change the Weather History Date:

Saturday, April 5, 2014

  Actual Average Record
Temperature  
Mean Temperature 51 °F 48 °F  
Max Temperature 56 °F 59 °F 82 °F (1959)
Min Temperature 46 °F 37 °F 15 °F (1955)
Degree Days  
Heating Degree Days 14 17  
Month to date heating degree days 86 87  
Since 1 July heating degree days 4560 5005  
Cooling Degree Days 0 0  
Month to date cooling degree days 0 0  
Year to date cooling degree days 0 0  
Moisture  
Dew Point 35 °F    
Average Humidity 53    
Maximum Humidity 66    
Minimum Humidity 39    
Precipitation  
Precipitation 0.03 in 0.07 in 0.76 in (1941)
Month to date precipitation 0.19 0.32  
Year to date precipitation 4.07 4.61  
Snow  
Snow T in 0.20 in 7.00 in (1921)
Month to date snowfall T 1.0  
Since 1 July snowfall 35.5 52.9  
Snow Depth 0.00 in    
Sea Level Pressure  
Sea Level Pressure 29.91 in    
Wind  
Wind Speed 7 mph (NW)    
Max Wind Speed 23 mph    
Max Gust Speed 29 mph    
Visibility 10 miles    
Events Rain    
T = Trace of Precipitation, MM = Missing Value Source: NWS Daily Summary

Daily Weather History Graph

Daily Weather History Graph

Search for Another Location

Airport or City:

Trip Planner

Search our weather history database for the weather conditions in past years. The results will help you decide how hot, cold, wet, or windy it might be!

Date:

Astronomy

Apr. 05, 2014 Rise Set
Actual Time 7:04 AM MDT 7:57 PM MDT
Civil Twilight 6:36 AM MDT 8:24 PM MDT
Nautical Twilight 6:03 AM MDT 8:58 PM MDT
Astronomical Twilight 5:29 AM MDT 9:32 PM MDT
Moon 11:14 AM MDT (4/5) 1:11 AM MDT (4/5)
Length of Visible Light 13h 47m
Length of Day
12h 52m
Waxing Crescent, 35% of the Moon is Illuminated
Apr 5
Waxing Crescent
Apr 7
First Quarter
Apr 15
Full
Apr 22
Last Quarter
Apr 29
New

Hourly Weather History & Observations

Time (MDT) Temp. Windchill Dew Point Humidity Pressure Visibility Wind Dir Wind Speed Gust Speed Precip Events Conditions
12:53 AM 50.0 °F - 27.0 °F 41% 29.81 in 10.0 mi ESE 6.9 mph - N/A   Overcast
2:00 AM 53.1 °F - 25.0 °F 34% 29.89 in 10.0 mi South 5.8 mph - N/A   Overcast
2:53 AM 50.0 °F - 28.0 °F 43% 29.80 in 10.0 mi ESE 5.8 mph - N/A   Mostly Cloudy
3:53 AM 51.1 °F - 28.9 °F 43% 29.81 in 10.0 mi Calm Calm - N/A   Overcast
4:53 AM 50.0 °F - 27.0 °F 41% 29.80 in 10.0 mi Calm Calm - N/A   Overcast
5:53 AM 48.9 °F - 28.0 °F 44% 29.80 in 10.0 mi Calm Calm - N/A   Mostly Cloudy
6:53 AM 46.9 °F - 30.0 °F 52% 29.82 in 10.0 mi West 4.6 mph - N/A   Mostly Cloudy
7:53 AM 48.0 °F - 37.0 °F 66% 29.84 in 10.0 mi WNW 4.6 mph - N/A   Mostly Cloudy
8:53 AM 48.9 °F - 37.9 °F 66% 29.87 in 10.0 mi WNW 4.6 mph - N/A   Mostly Cloudy
9:53 AM 52.0 °F - 34.0 °F 50% 29.88 in 10.0 mi NW 9.2 mph - N/A   Mostly Cloudy
10:53 AM 54.0 °F - 35.1 °F 49% 29.90 in 10.0 mi NNW 15.0 mph 21.9 mph N/A   Mostly Cloudy
11:53 AM 52.0 °F - 35.1 °F 53% 29.92 in 10.0 mi NW 11.5 mph - N/A   Mostly Cloudy
12:19 PM 50.0 °F - 39.9 °F 68% 29.98 in 10.0 mi West 13.8 mph - N/A   Overcast
12:31 PM 50.0 °F - 41.0 °F 71% 29.98 in 10.0 mi West 13.8 mph - 0.00 in Rain Light Rain
12:53 PM 50.0 °F - 39.0 °F 66% 29.93 in 10.0 mi WNW 15.0 mph - 0.00 in Rain Light Rain
1:53 PM 52.0 °F - 39.9 °F 63% 29.92 in 10.0 mi North 8.1 mph - 0.00 in   Mostly Cloudy
2:53 PM 55.0 °F - 36.0 °F 49% 29.91 in 10.0 mi Variable 5.8 mph - N/A   Scattered Clouds
3:36 PM 54.0 °F - 37.0 °F 53% 29.97 in 10.0 mi North 10.4 mph - N/A   Mostly Cloudy
3:53 PM 55.9 °F - 39.0 °F 53% 29.90 in 10.0 mi WNW 6.9 mph - N/A   Mostly Cloudy
4:53 PM 55.0 °F - 39.9 °F 57% 29.91 in 10.0 mi WNW 19.6 mph 26.5 mph 0.00 in Rain Light Rain
5:53 PM 55.0 °F - 35.1 °F 47% 29.93 in 10.0 mi NNW 12.7 mph - 0.05 in   Scattered Clouds
6:53 PM 55.0 °F - 35.1 °F 47% 29.95 in 10.0 mi NW 8.1 mph - N/A   Scattered Clouds
7:53 PM 52.0 °F - 37.0 °F 57% 29.96 in 10.0 mi West 6.9 mph - N/A   Scattered Clouds
8:53 PM 50.0 °F - 39.9 °F 68% 29.99 in 10.0 mi WNW 9.2 mph - N/A   Mostly Cloudy
9:26 PM 48.9 °F - 39.0 °F 69% 30.06 in 10.0 mi North 15.0 mph - N/A   Mostly Cloudy
9:53 PM 48.9 °F - 39.0 °F 69% 30.01 in 10.0 mi NNE 6.9 mph - 0.00 in   Mostly Cloudy
10:53 PM 48.0 °F - 39.0 °F 71% 30.01 in 10.0 mi Calm Calm - N/A   Scattered Clouds
11:53 PM 45.0 °F 42.6 °F 39.0 °F 80% 30.04 in 10.0 mi WSW 4.6 mph - N/A   Mostly Cloudy